Hourly Data Report for August 15, 2004

SHERBROOKE A
QUEBEC

45°26'00.000" N
71°41'00.000" W
241.40 m
7028124
71610
YSC

Download Data

Hourly Data (August 2004)
Hourly Data Report for August 15, 2004
TIME
LST
Temp Definition
°C
Dew Point Definition
°C
Rel Hum Definition
%
Precip. Amount Definition
mm

Wind Dir Definition
10's deg

Wind Spd Definition
km/h
Visibility Definition
km
Stn Press Definition
kPa
Hmdx Definition


Wind Chill Definition


Weather Definition


00:00 12.9 12.1 95     0 15.0 99.55      
01:00 12.4 11.7 95     0 8.0 99.61      
02:00 11.5 10.9 96   12 4 9.7 99.62      
03:00 12.1 11.5 96   10 6 12.9 99.63      
04:00 12.1 11.3 95   10 7 15.0 99.63      
05:00 11.4 10.7 95   9 6 15.0 99.71      
06:00 12.2 11.4 95   7 6 15.0 99.72      
07:00 14.8 12.6 87   9 7 24.1 99.74     Mostly Cloudy
08:00 16.9 13.7 81   9 6 24.1 99.77     Mostly Cloudy
09:00 17.9 13.7 76   6 6 24.1 99.76     Mostly Cloudy
10:00 20.0 14.5 71   11 6 24.1 99.72     Mostly Cloudy
11:00 21.3 13.9 63   9 7 24.1 99.67 25   Mostly Cloudy
12:00 22.3 13.6 58   10 6 24.1 99.64 25   Mostly Cloudy
13:00 23.0 13.2 54     0 24.1 99.61 26   Mostly Cloudy
14:00 23.3 12.0 49   2 4 24.1 99.57 26   Mostly Cloudy
15:00 23.3 11.2 46   1 4 24.1 99.54 25   Mostly Cloudy
16:00 22.5 12.9 55   1 4 24.1 99.53 25   Mostly Cloudy
17:00 23.9 12.6 49     0 15.0 99.55 26    
18:00 20.7 16.0 74   35 4 15.0 99.56 25    
19:00 17.9 14.6 81     0 15.0 99.55      
20:00 15.4 13.5 88   3 4 15.0 99.60      
21:00 15.8 14.2 90   10 6 15.0 99.58      
22:00 15.6 14.0 90   10 7 15.0 99.58      
23:00 14.7 13.4 92   10 6 15.0 99.58      

Notes on Data Quality.

Legend

  • E = Estimated
  • M = Missing
  • NA = Not Available*
  • [empty] = Indicates an unobserved value
Date modified: